Wetbulb
47.86 47.51 45.93 44.46 44.73 43.66 42.30 39.47 37.70 36.54 35.68 34.57 34.16 33.66 33.58 33.52 34.22 33.93 33.50 33.33 32.92 32.78 32.59 31.67 31.27 32.07 31.87 32.16 32.78 32.61 31.80 31.36 28.40 30.75 32.56 33.84 33.40 33.70 34.22 34.93 35.09 33.88 34.19
43.54 44.33 43.48 41.61 40.61 39.26 37.85 36.36 35.56 34.37 34.07 33.48 33.05 32.62 32.42 32.48 32.78 33.04 32.53 32.19 31.94 30.90 31.04 31.25 30.73 31.15 31.01 31.58 31.78 31.23 31.34 31.76 30.10 27.30 30.11 31.89 32.50 33.12 33.24 32.88 31.98 32.28 32.55
41.08 40.80 39.67 38.61 38.39 37.24 35.62 34.30 33.91 32.90 32.42 31.96 31.82 31.42 31.55 31.76 32.10 32.34 32.21 31.82 31.46 31.37 31.07 30.70 30.49 30.62 30.00 30.70 31.09 31.01 31.44 31.38 30.50 28.89 29.20 32.36 32.29 32.86 32.21 31.97 31.23 31.68 31.38
38.94 38.51 37.47 36.55 36.34 35.15 33.75 32.97 32.55 31.92 31.06 30.79 30.75 30.92 31.56 31.50 31.77 31.43 31.13 31.19 31.12 31.21 31.54 31.37 30.85 30.40 29.98 30.38 30.70 30.98 31.16 30.82 30.68 30.50 30.46 30.14 30.35 31.68 31.59 28.41 27.72 29.83 28.89
36.86 36.42 35.34 33.54 33.49 32.70 31.93 31.82 30.93 30.37 30.04 29.98 29.42 29.85 30.49 31.16 31.20 30.79 30.70 30.54 30.40 30.26 31.02 30.77 31.07 30.48 30.92 31.77 31.47 31.49 31.42 31.24 31.16 30.41 29.17 28.27 28.30 28.68 26.36 27.46 26.22 27.23 29.04
34.97 34.17 32.43 32.06 31.43 31.53 30.80 30.28 29.63 29.01 28.90 28.75 28.29 28.64 29.10 30.76 33.49 32.64 31.11 30.14 29.99 29.75 29.29 29.88 30.24 29.79 30.53 31.69 32.51 33.65 34.38 32.28 29.85 30.18 28.45 26.86 27.24 27.20 27.15 26.47 25.20 23.09 22.35
33.05 31.66 31.31 30.98 30.48 30.23 29.64 28.58 27.91 27.53 27.70 27.29 27.31 27.66 28.14 30.66 34.39 33.86 31.97 30.07 29.66 29.77 29.50 29.46 29.66 30.29 30.11 30.15 31.31 33.16 32.87 33.13 32.48 31.95 28.53 27.99 27.27 27.77 27.47 26.12 24.87 22.48 22.80
31.25 30.62 30.25 30.24 29.54 28.30 27.72 27.30 26.60 26.64 26.43 26.25 26.30 26.87 27.36 29.15 33.75 33.56 32.09 30.03 29.67 29.54 29.57 29.66 29.80 29.65 30.25 30.28 31.04 31.79 31.62 30.21 30.50 31.57 30.57 29.71 29.44 29.92 29.08 27.62 24.44 21.48 22.34
30.73 30.15 29.43 29.24 28.19 27.06 26.49 25.78 25.56 25.65 25.38 25.64 25.74 25.61 26.47 28.28 32.79 33.01 31.40 29.62 29.16 28.92 29.10 29.78 30.18 29.77 30.88 31.76 32.28 31.08 30.24 30.69 30.81 31.20 30.45 30.32 30.14 29.13 29.00 25.30 23.09 19.93 20.24
30.96 30.53 29.77 29.14 28.35 27.27 26.74 25.22 25.05 25.67 24.99 25.04 24.62 24.11 24.29 25.39 31.22 32.23 30.98 29.27 27.86 27.42 28.90 29.69 29.46 30.74 31.27 32.11 31.58 30.70 28.47 29.86 29.05 25.76 23.55 25.13 25.41 25.26 25.47 23.81 23.30 20.76 18.02
31.70 30.07 28.63 28.02 27.78 27.41 25.61 24.30 23.74 23.93 23.70 23.35 23.07 22.31 22.99 24.08 26.36 31.26 32.17 28.89 27.54 27.38 27.92 28.48 29.00 30.25 31.78 32.03 31.94 30.63 29.89 30.41 27.78 26.16 24.21 24.32 24.57 24.16 24.22 23.24 22.09 22.63 19.20
29.98 28.85 27.93 27.63 26.41 25.41 24.28 22.80 23.00 22.94 21.88 21.02 21.27 20.87 22.41 23.17 24.68 29.54 31.71 31.51 30.50 28.61 27.79 28.43 28.36 29.57 31.28 32.56 31.24 30.41 30.39 25.97 24.20 25.63 25.71 25.57 24.74 22.81 22.40 21.62 20.51 20.29 21.27
28.87 28.25 27.29 25.90 25.21 24.82 23.62 21.92 21.64 21.92 21.53 20.47 21.15 21.57 21.66 22.60 23.24 28.19 30.50 31.50 31.61 29.14 28.68 28.43 28.98 29.70 31.16 31.17 30.08 29.53 19.43 19.30 20.14 20.46 21.36 21.55 20.94 20.28 18.98 19.94 19.24 17.19 16.30
29.43 27.41 25.40 24.92 23.43 23.39 23.56 22.58 22.40 21.46 21.66 21.50 21.70 22.67 23.00 22.35 22.57 23.31 26.05 29.27 29.98 29.92 28.89 28.46 28.11 28.29 29.18 27.17 23.03 22.84 19.71 18.42 19.12 18.81 17.95 17.31 16.71 17.62 17.83 17.47 17.77 17.02 17.55
28.68 25.18 24.38 24.71 23.03 22.10 22.44 22.26 22.44 23.60 24.56 23.16 23.89 24.80 22.86 22.18 23.06 25.19 25.08 24.53 25.48 26.09 24.27 25.73 24.27 24.91 24.48 23.01 19.49 15.52 15.53 15.09 16.00 14.96 14.34 13.92 14.55 14.49 15.60 16.10 14.69 14.23 15.58
24.58 23.06 23.84 22.65 22.16 21.58 21.12 20.90 25.42 24.48 26.57 27.60 27.00 25.52 24.64 25.44 27.01 28.15 28.73 29.11 28.68 28.45 26.98 25.18 24.23 22.64 22.11 23.81 19.87 15.94 14.06 12.08 13.49 12.30 11.29 11.08 12.48 12.41 13.26 14.90 13.68 12.53 13.55
24.68 23.28 22.77 22.43 22.11 21.24 20.95 20.76 19.75 23.34 26.56 27.41 28.02 28.12 26.76 25.10 27.79 28.73 29.80 30.00 29.32 29.16 25.95 24.61 23.35 22.59 21.65 18.11 15.99 13.68 13.89 12.65 9.21 10.17 10.72 9.74 9.59 9.76 10.39 11.77 11.42 11.44 11.55
22.59 22.68 23.03 23.03 22.66 22.33 22.05 21.96 22.37 20.80 20.93 22.24 27.75 27.57 28.62 28.21 27.80 28.72 29.47 28.14 22.85 20.57 15.76 19.84 18.21 16.79 14.64 13.83 12.22 11.19 10.53 8.99 8.54 8.35 7.28 6.13 5.03 6.84 8.45 9.55 9.17 6.99 8.08
23.20 23.03 23.30 23.43 23.43 23.20 22.58 22.38 22.39 22.33 22.81 20.28 16.97 23.98 27.15 28.92 29.63 29.16 28.39 24.59 17.95 16.87 12.99 10.31 9.89 10.33 9.75 8.86 8.72 6.82 6.41 6.63 5.46 3.92 3.35 2.89 3.23 4.03 5.32 5.81 6.17 4.24 5.00
21.20 22.14 22.43 22.63 21.08 20.71 20.06 19.65 19.05 18.31 17.89 16.95 16.23 19.50 15.56 19.19 24.04 23.62 23.00 12.10 10.34 11.10 9.29 8.65 7.25 5.52 4.98 4.30 2.60 2.20 2.30 1.17 1.48 0.85 1.65 1.79 2.58 2.31 3.59 2.59 2.91 4.15 3.85
15.20 15.58 18.30 18.38 18.43 18.95 18.36 17.87 17.46 16.29 15.59 15.05 15.48 15.40 17.34 17.22 19.41 18.10 13.55 8.47 8.43 7.84 7.55 5.70 4.14 2.68 0.37 -0.56 -1.26 -0.82 -0.20 2.68 0.20 -0.07 0.08 0.26 -0.05 0.73 0.50 2.10 1.26 -0.12 0.24
13.26 13.57 12.56 13.78 13.52 14.03 14.72 14.85 14.85 14.24 14.89 14.95 13.83 11.56 20.73 16.55 11.66 12.04 10.80 10.45 8.80 7.47 6.90 5.27 3.01 0.90 -0.50 -1.64 -1.21 -0.75 -0.87 -0.62 -0.95 -0.58 -0.31 -1.29 -0.91 -0.51 -0.81 -0.19 -0.18 0.13 -1.15
7.14 7.10 7.22 7.60 10.26 11.19 11.41 10.96 11.55 12.50 13.40 12.98 13.25 11.52 10.67 15.39 15.89 13.10 11.80 10.85 8.46 5.52 2.97 -0.49 0.90 -0.63 -3.47 -3.07 -0.30 1.56 0.98 -0.38 0.03 0.38 -0.79 -1.51 -1.98 -0.99 -2.35 -1.18 -1.17 -2.52 -2.25
0.05 1.74 2.54 1.98 2.85 4.00 5.69 9.19 10.51 11.04 11.14 11.60 11.22 11.01 10.94 11.23 11.53 11.09 9.95 8.10 5.97 3.49 2.84 0.25 0.88 1.75 0.12 -1.04 -0.31 -0.56 -0.96 0.25 -2.12 -1.65 -1.12 -0.70 -1.16 -2.45 -2.68 -3.73 -3.01 -3.15 -2.62
-3.65 -2.20 -0.47 0.68 2.42 4.42 4.70 6.13 6.62 7.83 8.75 9.79 9.78 10.39 10.57 10.55 9.66 9.02 8.47 7.56 6.19 4.28 3.57 2.13 2.36 2.23 1.62 1.28 0.49 -1.22 -2.57 1.01 -2.09 -2.61 -0.78 -1.85 -2.56 -3.49 -5.00 -3.54 -2.73 -3.20 -3.69
-6.99 -6.16 -5.20 -4.14 -3.62 -2.77 0.50 2.55 4.34 5.87 7.51 8.29 8.62 8.95 9.43 9.30 9.11 8.92 7.95 6.98 5.61 4.87 5.04 4.77 4.19 3.26 2.94 3.39 2.72 2.06 -0.51 1.80 -0.15 -0.87 -1.93 -2.43 -4.83 -4.85 -4.34 -4.36 -4.41 -3.93 -3.91
MSLP
1019.50 1019.88 1020.25 1020.97 1021.46 1021.97 1022.59 1023.74 1024.45 1025.29 1026.00 1027.22 1028.04 1028.64 1029.17 1029.71 1029.96 1030.21 1030.51 1030.82 1031.04 1031.72 1032.27 1032.28 1032.63 1032.70 1033.09 1032.84 1032.66 1032.72 1032.79 1032.77 1032.69 1031.94 1031.90 1031.45 1030.91 1030.37 1029.70 1029.29 1028.81 1028.18 1027.46
1019.61 1020.08 1020.40 1020.94 1021.87 1022.14 1023.01 1023.77 1024.84 1025.18 1025.92 1027.10 1028.09 1028.59 1029.14 1029.72 1030.01 1030.12 1030.46 1030.94 1031.27 1031.84 1032.33 1032.39 1032.48 1032.79 1033.06 1032.91 1032.77 1032.80 1032.85 1032.93 1032.84 1032.49 1032.14 1031.37 1031.02 1030.63 1030.04 1029.62 1029.17 1028.42 1027.72
1019.83 1020.20 1020.78 1021.36 1021.90 1022.61 1022.96 1023.84 1024.82 1025.39 1026.24 1027.33 1028.03 1028.60 1028.89 1029.53 1029.88 1030.27 1030.61 1031.19 1031.44 1031.74 1032.10 1032.34 1032.38 1032.68 1032.77 1032.75 1032.78 1032.83 1032.83 1032.85 1032.73 1032.48 1031.93 1031.48 1031.19 1030.49 1030.01 1029.62 1029.15 1028.63 1027.87
1019.98 1020.31 1020.86 1021.28 1022.15 1023.02 1023.31 1024.27 1024.52 1025.46 1026.36 1027.22 1028.14 1028.69 1028.91 1029.34 1029.87 1030.37 1030.82 1031.32 1031.52 1031.74 1032.10 1032.14 1032.27 1032.52 1032.65 1032.66 1032.65 1032.59 1032.50 1032.50 1032.27 1031.90 1031.62 1031.54 1031.30 1030.51 1030.25 1029.89 1028.82 1028.25 1027.58
1020.14 1020.56 1020.88 1021.52 1022.38 1022.91 1023.88 1024.68 1024.75 1025.62 1026.51 1027.06 1027.83 1028.64 1029.07 1029.32 1029.57 1030.05 1030.64 1031.10 1031.30 1031.62 1031.98 1031.98 1032.04 1032.30 1032.30 1032.25 1032.18 1032.14 1032.15 1031.95 1031.88 1031.75 1031.70 1031.71 1031.34 1030.79 1030.78 1030.51 1029.81 1028.59 1027.38
1019.89 1020.63 1021.12 1022.01 1022.68 1022.98 1023.96 1024.73 1025.06 1025.99 1026.71 1027.20 1027.71 1028.28 1028.96 1029.37 1029.46 1029.87 1030.41 1030.74 1030.98 1031.41 1031.76 1031.84 1031.93 1032.17 1032.12 1032.08 1031.96 1031.73 1031.56 1031.56 1031.74 1031.73 1031.68 1031.55 1031.33 1031.35 1031.15 1030.78 1030.16 1029.28 1028.34
1019.49 1020.27 1020.96 1021.78 1022.48 1022.91 1023.86 1024.74 1025.51 1026.16 1026.75 1027.33 1027.65 1028.31 1028.83 1029.14 1029.18 1029.55 1030.08 1030.55 1030.86 1031.17 1031.33 1031.42 1031.69 1031.93 1032.01 1031.90 1031.73 1031.47 1031.34 1031.22 1031.29 1031.40 1031.54 1031.55 1031.55 1031.53 1031.29 1030.81 1030.55 1030.29 1029.63
1019.50 1020.37 1020.84 1021.31 1022.01 1022.74 1023.64 1024.66 1025.71 1026.12 1026.58 1027.21 1027.70 1028.24 1028.60 1029.10 1029.00 1029.33 1029.86 1030.32 1030.51 1030.81 1030.86 1031.13 1031.33 1031.59 1031.48 1031.65 1031.51 1031.28 1031.30 1031.20 1031.19 1031.13 1031.24 1031.24 1031.27 1031.15 1031.02 1030.74 1030.83 1030.53 1029.54
1019.03 1019.67 1020.47 1021.01 1021.76 1022.62 1023.58 1024.60 1025.52 1025.94 1026.52 1027.05 1027.52 1028.05 1028.43 1028.74 1028.77 1029.26 1029.57 1029.99 1030.27 1030.47 1030.60 1030.76 1030.87 1031.15 1031.03 1031.03 1030.98 1031.00 1030.98 1030.90 1030.96 1030.99 1031.00 1030.95 1030.87 1030.75 1030.62 1030.83 1030.68 1030.60 1029.78
1017.83 1018.65 1019.60 1020.33 1021.13 1022.10 1023.19 1024.30 1025.06 1025.67 1026.25 1026.95 1027.56 1027.97 1028.32 1028.62 1028.74 1028.95 1029.26 1029.55 1029.80 1030.14 1030.19 1030.30 1030.57 1030.47 1030.38 1030.55 1030.67 1030.79 1030.78 1030.64 1030.71 1031.29 1031.38 1031.23 1031.07 1030.87 1030.58 1030.64 1030.55 1030.39 1030.33
1017.37 1018.48 1019.38 1020.11 1020.98 1022.03 1023.12 1024.09 1024.88 1025.53 1026.36 1027.08 1027.73 1028.09 1028.33 1028.80 1029.00 1028.57 1028.65 1029.02 1029.32 1029.61 1029.86 1030.02 1030.18 1030.05 1030.03 1030.13 1030.15 1030.34 1030.27 1030.22 1030.63 1030.99 1031.29 1031.11 1030.69 1030.43 1030.25 1030.38 1030.50 1030.28 1029.77
1017.28 1018.21 1019.15 1020.04 1020.99 1021.93 1022.85 1023.88 1024.63 1025.20 1026.00 1026.87 1027.61 1028.18 1028.43 1028.72 1028.70 1028.38 1028.22 1028.39 1028.68 1028.93 1029.25 1029.38 1029.51 1029.63 1029.72 1029.59 1029.72 1029.99 1029.86 1030.55 1030.87 1030.88 1030.74 1030.39 1030.22 1030.18 1030.12 1030.16 1030.09 1030.13 1029.60
1017.37 1018.25 1019.09 1019.99 1020.77 1021.52 1022.36 1023.41 1024.32 1024.95 1025.56 1026.36 1026.92 1027.42 1027.74 1027.99 1028.19 1027.86 1027.95 1027.90 1028.02 1028.44 1028.85 1028.82 1028.74 1029.02 1029.16 1029.12 1029.41 1029.68 1030.81 1030.85 1030.87 1030.81 1030.47 1030.30 1030.28 1030.15 1030.21 1029.83 1029.64 1029.73 1029.52
1017.13 1018.02 1018.80 1019.60 1020.55 1021.39 1022.05 1022.65 1023.32 1024.11 1024.81 1025.44 1025.97 1026.31 1026.66 1027.07 1027.26 1027.62 1027.83 1027.63 1027.68 1027.87 1028.33 1028.34 1028.44 1028.77 1029.04 1029.20 1029.72 1030.18 1030.57 1030.59 1030.81 1030.67 1030.47 1030.33 1030.35 1030.11 1030.18 1030.07 1029.76 1029.32 1029.19
1017.03 1017.97 1018.78 1019.58 1020.40 1021.13 1021.72 1022.17 1022.67 1023.03 1023.12 1023.65 1024.16 1024.70 1025.37 1025.68 1025.66 1026.33 1026.84 1027.21 1027.42 1027.77 1028.28 1028.23 1028.26 1028.69 1028.99 1029.18 1029.57 1030.27 1030.59 1030.74 1030.69 1030.50 1030.50 1030.59 1030.51 1030.38 1030.08 1029.98 1029.70 1029.52 1029.17
1017.24 1017.91 1018.38 1019.06 1019.81 1020.53 1021.23 1022.08 1022.53 1022.88 1023.08 1023.23 1023.62 1023.90 1024.31 1024.48 1024.81 1025.38 1025.90 1026.34 1026.68 1027.00 1027.24 1027.41 1027.73 1028.22 1028.50 1028.58 1029.08 1029.94 1030.37 1030.51 1030.49 1030.51 1030.62 1030.57 1030.40 1030.34 1030.18 1030.21 1030.10 1029.78 1029.13
1017.12 1017.82 1018.44 1018.93 1019.44 1019.99 1020.58 1021.22 1022.02 1022.77 1022.98 1023.06 1023.19 1023.43 1023.90 1024.17 1024.41 1024.82 1025.13 1025.49 1025.85 1026.06 1026.28 1026.93 1027.37 1027.75 1027.92 1028.21 1028.83 1029.52 1029.71 1030.02 1030.20 1030.28 1030.40 1030.50 1030.54 1030.46 1030.11 1030.07 1030.06 1030.00 1029.42
1017.59 1017.84 1018.04 1018.67 1019.29 1019.73 1020.23 1020.81 1021.45 1022.00 1022.28 1022.42 1022.43 1022.81 1023.12 1023.51 1023.85 1024.22 1024.58 1025.15 1025.37 1025.64 1026.31 1026.76 1027.05 1027.29 1027.70 1028.08 1028.68 1029.21 1029.47 1029.86 1030.08 1030.09 1030.09 1030.16 1030.37 1030.46 1030.05 1030.18 1030.17 1029.96 1029.76
1017.36 1017.76 1018.19 1018.46 1018.77 1019.42 1020.23 1020.70 1020.99 1021.42 1021.72 1021.91 1022.29 1022.43 1022.52 1022.68 1022.80 1023.33 1023.96 1024.38 1025.12 1025.64 1026.16 1026.66 1026.92 1027.19 1027.48 1027.71 1028.20 1028.85 1029.25 1029.43 1029.65 1029.86 1029.90 1030.17 1030.31 1030.24 1030.02 1030.27 1030.30 1030.11 1030.02
1017.71 1017.89 1018.14 1018.41 1018.88 1019.48 1019.78 1020.10 1020.60 1021.06 1021.47 1021.82 1022.22 1022.33 1022.77 1022.97 1022.54 1022.66 1023.23 1024.28 1025.06 1025.51 1025.94 1026.31 1026.56 1027.16 1027.56 1027.81 1028.18 1028.41 1028.75 1029.14 1029.36 1029.41 1029.49 1029.68 1030.05 1030.21 1030.00 1030.01 1030.25 1029.84 1029.95
1018.31 1018.46 1018.50 1018.76 1019.00 1019.22 1019.61 1019.99 1020.32 1020.79 1021.20 1021.63 1021.66 1022.21 1022.45 1022.35 1022.71 1023.21 1023.87 1024.48 1024.89 1025.31 1025.66 1026.05 1026.36 1026.49 1026.83 1027.43 1027.75 1027.99 1028.27 1028.45 1028.78 1029.08 1029.34 1029.42 1029.43 1029.92 1030.06 1029.90 1030.13 1030.12 1029.82
1018.77 1018.89 1019.12 1019.17 1019.27 1019.54 1019.83 1020.09 1020.37 1020.69 1020.97 1021.13 1021.14 1021.91 1021.93 1022.26 1022.24 1022.38 1022.94 1023.42 1023.99 1024.57 1024.98 1025.49 1025.90 1026.37 1026.57 1026.71 1027.18 1027.40 1027.50 1027.77 1028.20 1028.32 1028.80 1029.23 1028.94 1029.30 1029.76 1029.68 1029.48 1029.66 1029.73
1019.49 1019.62 1019.59 1019.66 1019.75 1019.88 1020.04 1020.09 1020.22 1020.38 1020.46 1020.72 1021.03 1021.45 1021.75 1021.56 1021.51 1021.86 1022.34 1022.92 1023.32 1024.03 1024.44 1025.16 1025.42 1025.85 1026.16 1026.42 1026.49 1026.74 1026.67 1026.57 1027.31 1027.66 1027.58 1028.38 1028.45 1028.76 1029.22 1029.23 1029.30 1029.34 1029.35
1020.06 1020.32 1020.21 1020.15 1020.14 1020.10 1020.07 1020.04 1020.02 1020.01 1020.09 1020.25 1020.43 1020.65 1020.86 1021.02 1021.18 1021.39 1021.80 1022.30 1022.86 1023.29 1023.63 1024.22 1024.51 1024.42 1025.02 1025.50 1025.82 1026.03 1026.12 1026.02 1026.42 1027.32 1027.17 1027.26 1027.71 1028.01 1028.51 1028.59 1028.74 1028.91 1028.98
1020.55 1020.80 1020.71 1020.57 1020.42 1020.27 1020.16 1020.06 1019.93 1019.89 1019.87 1019.94 1019.94 1020.07 1020.14 1020.37 1020.59 1020.79 1021.09 1021.40 1021.89 1022.35 1022.55 1023.05 1023.46 1023.69 1023.92 1024.30 1024.87 1025.00 1025.20 1025.34 1025.80 1026.19 1026.56 1026.64 1027.04 1027.40 1027.81 1027.97 1028.28 1028.33 1028.43
1020.99 1020.96 1021.00 1020.76 1020.47 1020.30 1020.06 1019.87 1019.74 1019.69 1019.57 1019.48 1019.48 1019.51 1019.58 1019.70 1019.73 1019.99 1020.27 1020.58 1020.97 1021.36 1021.68 1022.02 1022.41 1022.82 1022.93 1023.17 1023.60 1023.97 1024.19 1024.43 1024.81 1025.08 1025.52 1025.95 1026.31 1026.54 1027.00 1027.06 1027.36 1027.57 1027.70
Wind_Speed
7 7 8 6 8 10 11 11 12 12 12 10 9 8 8 7 7 7 7 7 8 7 6 6 6 6 4 4 4 4 3 3 4 6 8 9 13 13 13 13 12 13 11
5 6 8 9 9 11 10 11 11 12 10 10 9 8 8 6 6 7 7 6 8 7 6 7 7 4 4 4 3 4 4 4 4 9 9 9 11 13 12 12 11 10 11
7 8 8 9 10 10 12 12 11 12 10 9 9 8 8 7 7 6 7 7 7 8 7 7 7 5 4 3 3 2 3 3 4 4 7 7 8 8 11 10 10 9 8
7 9 9 10 9 9 11 11 12 10 11 9 7 7 7 8 7 7 8 7 7 7 6 6 6 4 3 2 0 2 2 2 4 4 6 7 7 9 7 9 11 9 9
8 8 9 8 9 10 10 10 11 10 9 9 9 7 7 7 6 8 8 7 8 7 6 5 4 3 2 2 1 2 2 2 4 5 6 6 7 9 9 8 9 9 7
9 8 9 10 10 10 10 10 11 9 8 8 8 8 8 4 12 12 9 7 7 7 6 4 3 1 1 3 4 6 5 3 4 4 3 6 9 7 5 8 8 8 7
10 10 12 12 12 11 11 10 10 10 8 7 8 8 7 6 13 12 11 5 6 6 5 4 3 2 2 2 4 6 4 4 4 3 4 6 8 7 7 8 8 4 5
10 11 12 13 12 11 11 10 9 8 8 8 7 7 7 5 13 12 12 5 5 5 5 5 4 2 2 3 3 3 0 3 3 2 3 5 6 6 6 4 5 6 7
13 13 12 12 13 12 11 10 8 8 6 7 6 7 8 5 13 13 10 5 6 5 5 5 4 4 4 5 2 3 3 3 3 5 6 5 5 5 5 2 3 5 3
16 15 14 13 13 13 12 11 6 6 8 6 6 5 6 7 12 13 10 4 5 4 4 5 7 7 6 7 3 3 4 4 1 5 3 3 3 4 5 1 2 3 3
12 11 11 11 12 11 10 5 7 7 7 6 6 5 5 6 7 13 13 6 5 5 4 4 4 5 7 7 8 4 5 2 4 4 4 4 3 3 3 3 2 4 3
10 11 12 12 9 9 11 8 8 9 9 7 7 5 4 5 8 12 13 12 10 5 5 4 4 7 8 10 7 8 8 2 3 4 5 4 4 4 4 4 3 4 6
11 11 11 10 9 10 12 11 9 8 8 7 7 6 6 5 5 13 15 14 14 6 5 7 8 9 11 8 7 10 3 2 2 3 3 2 2 3 5 4 2 3 2
12 11 11 12 11 10 8 8 9 9 8 7 7 7 5 6 6 5 6 7 12 9 9 5 5 7 10 4 2 3 3 3 3 3 2 2 3 2 2 2 2 3 2
9 9 9 8 10 9 7 8 8 8 10 10 9 7 7 8 9 12 11 7 5 6 4 3 3 5 6 5 3 3 3 3 3 2 2 2 2 2 2 1 1 1 1
8 8 9 9 9 9 9 6 10 8 14 12 8 8 5 4 13 18 18 17 15 15 7 6 7 6 7 6 4 4 3 4 3 3 3 2 2 2 2 2 1 2 1
7 7 6 7 8 9 9 8 8 7 12 15 14 14 15 11 13 15 18 16 15 13 8 8 8 7 6 4 5 6 4 4 3 3 3 2 2 2 1 2 2 2 1
2 6 7 7 7 8 8 8 7 8 9 6 17 15 18 17 16 16 16 13 5 4 3 7 7 6 5 5 5 5 4 3 3 3 3 3 2 2 1 2 2 2 2
5 5 5 6 7 7 7 7 7 7 7 3 2 9 14 19 18 17 18 9 7 6 5 5 5 4 5 5 5 4 4 4 3 3 2 2 2 2 2 3 3 3 2
2 5 6 6 6 6 5 7 6 6 5 4 5 7 3 2 9 10 8 4 4 5 4 5 4 4 4 4 4 4 4 4 4 4 3 3 3 3 3 3 3 2 2
2 2 4 2 5 6 6 7 6 5 6 6 6 6 11 8 8 7 5 5 5 5 5 5 4 5 5 5 5 5 5 4 4 4 3 3 3 3 3 3 3 3 2
2 3 3 3 3 4 4 4 5 5 6 6 5 5 18 8 6 7 7 7 7 7 5 5 5 5 6 6 6 6 5 5 4 4 4 4 4 3 3 3 3 2 2
1 2 2 2 2 3 3 3 4 5 5 5 5 5 6 7 6 7 7 6 5 5 4 5 5 4 4 4 5 6 6 6 6 5 6 5 5 5 4 4 3 3 3
0 1 2 2 2 2 3 4 5 7 6 6 6 6 6 6 7 7 5 5 5 5 5 5 6 7 5 6 6 6 5 5 4 6 7 6 6 6 5 4 5 5 4
1 2 2 3 4 4 4 4 4 4 5 6 6 6 6 6 7 7 6 6 6 6 7 7 6 7 9 10 9 10 9 10 8 8 6 7 6 7 5 5 5 5 5
3 3 3 2 2 3 4 4 4 5 6 6 6 6 7 7 7 6 6 6 5 6 6 6 7 11 10 9 11 11 10 11 10 12 8 7 6 6 6 7 9 6 7
Wind_Direction
175 160 141 139 144 144 147 142 146 140 140 137 139 134 132 135 135 125 118 119 112 108 105 105 105 101 101 89 79 66 45 8 319 316 332 336 344 348 344 343 339 336 339
151 152 148 141 143 139 145 141 150 140 130 139 139 136 136 138 141 133 126 121 126 129 135 126 118 113 100 71 57 38 8 346 330 327 329 340 345 346 336 335 333 335 335
150 145 146 145 148 152 145 139 145 134 131 135 139 146 144 143 134 127 123 134 136 139 141 140 127 126 102 81 54 8 345 339 353 329 325 331 339 336 339 339 334 338 332
152 151 152 151 147 154 135 145 136 136 138 142 144 146 141 136 135 136 136 142 142 141 146 143 139 129 117 106 250 301 312 327 352 340 333 346 332 337 336 338 338 346 332
154 155 150 130 133 136 135 150 130 135 144 143 140 137 136 144 149 147 149 154 147 148 161 153 148 153 222 230 274 310 312 328 343 344 342 332 333 341 348 334 326 326 329
157 155 142 141 144 144 142 150 137 138 141 142 144 145 151 153 154 153 155 156 157 162 164 153 154 169 170 307 307 313 329 6 347 320 328 321 321 327 317 332 338 354 336
162 157 157 156 154 154 148 144 148 152 148 152 146 150 155 155 161 161 161 161 163 165 161 151 151 149 201 248 285 309 338 8 340 290 298 305 303 313 311 323 338 331 293
164 166 167 163 158 151 152 155 152 154 156 157 156 157 148 171 172 171 169 166 162 174 159 156 156 178 219 233 277 307 314 348 314 274 247 279 268 288 292 308 314 300 289
178 175 172 167 159 157 161 161 157 152 155 160 154 155 157 165 175 182 166 167 176 173 163 171 169 202 201 261 264 248 284 292 341 352 314 278 277 306 330 311 348 347 311
186 181 174 168 163 166 164 161 155 160 152 150 149 160 159 162 187 188 174 163 168 179 170 179 196 208 212 243 227 216 258 265 286 316 328 289 328 328 3 357 277 314 291
172 167 167 167 165 165 152 150 146 141 136 141 149 156 163 176 195 192 189 179 183 179 188 190 201 230 235 241 241 233 234 278 292 277 274 268 266 317 337 345 260 254 238
156 161 165 164 161 156 154 143 148 148 150 156 156 168 188 185 195 208 209 200 199 193 198 197 205 244 256 250 242 241 255 266 251 251 255 275 300 323 328 315 293 252 255
156 169 168 160 160 160 158 156 153 158 162 168 177 182 190 190 201 207 217 217 215 202 200 209 218 239 252 253 250 252 176 206 220 233 249 282 291 297 303 298 286 293 286
171 168 163 167 163 165 164 164 162 170 171 173 183 194 184 184 195 196 213 218 222 218 212 223 231 239 244 204 143 200 212 210 218 225 231 264 285 292 283 327 298 340 317
165 161 166 171 174 165 171 173 179 190 186 181 195 184 174 199 207 198 194 196 200 209 199 217 214 234 221 212 188 222 213 203 207 195 208 238 257 273 269 280 241 287 267
157 167 176 169 171 172 168 159 197 192 200 204 196 193 200 195 188 197 203 206 212 216 219 216 229 221 225 218 208 222 221 215 210 192 198 217 235 263 290 289 289 269 275
170 173 171 180 181 178 174 171 177 213 217 224 222 219 214 198 193 198 207 217 227 226 229 229 235 226 221 205 204 208 210 204 171 199 212 220 240 256 244 275 304 292 293
132 175 175 184 188 182 180 182 182 184 192 203 223 215 214 209 204 215 214 224 228 205 206 225 230 223 219 211 205 208 209 192 203 202 203 198 206 235 232 247 265 265 281
156 173 187 184 179 179 185 188 191 192 208 189 138 220 219 220 217 211 218 222 211 221 210 224 229 225 215 200 198 198 206 204 205 200 204 206 204 204 228 246 258 264 262
158 177 181 174 164 181 186 188 188 197 194 195 204 219 160 145 211 208 217 172 199 224 220 226 213 217 214 198 191 190 193 200 206 208 211 202 209 224 232 224 241 230 227
124 115 163 155 187 193 192 202 198 190 200 204 206 196 194 195 211 218 208 207 210 221 227 222 218 207 191 192 191 191 204 207 206 216 212 208 181 217 218 231 240 237 224
168 166 165 187 159 173 195 190 193 202 212 216 207 209 221 216 210 202 201 204 205 213 207 206 209 210 194 188 191 197 198 204 214 205 212 218 195 208 215 223 215 218 210
195 168 157 174 179 180 193 191 204 214 221 224 219 203 203 231 216 210 215 216 207 211 200 199 210 214 204 209 198 201 200 199 206 198 189 202 201 205 209 218 214 212 211
319 228 206 198 177 190 201 218 220 222 221 220 209 210 211 219 226 220 205 202 207 208 196 194 207 203 197 205 210 208 217 208 178 206 196 189 201 196 206 203 209 214 218
281 252 230 212 209 212 212 220 213 213 218 221 222 222 217 217 217 215 208 201 200 201 204 198 207 214 213 209 215 214 214 220 202 199 203 198 202 194 199 210 220 219 218
301 279 263 259 245 228 220 221 224 219 226 226 226 224 220 219 218 212 201 197 196 201 201 200 207 213 215 222 227 224 213 213 213 200 191 194 197 201 203 212 215 220 222